Powrót do katalogu

STARLINK-35183

AktywnyŁącznośćVLEO
NORAD 65646·PAYLOAD·🇺🇸 United States

Wystrzelony Sep 18, 2025 z Cape Canaveral Space Force Station

Loading…

Następne Przeloty (najbliższe 24 godziny)

TLE

ŚwieżeSource: CelesTrak SupGP

Epoka: Sep 15, 2026, 03:41 UTC

1 65646C 25210AA  26258.15395833  .00048719  00000+0  14388-2 0  2589
2 65646  53.1596 146.6542 0001314  74.8628 309.5135 15.34378704    19

Śledź STARLINK-35183 w czasie rzeczywistym z AllMySat

Download on the App Store